When you browse on this site, cookies collect data to enhance your experience and personalize the content and advertising you see.
Visit our Privacy Policy to learn more. By continuing to use the site, you agree to this use of cookies and data.
  • în România
  • Lista ţărilor
  • Pe 7 zile
  • Temperatura apei
  • Hartă satelitară
  • Meteo pe hartă
  • Widget-uri
  • user-avatar
    Intrare

    Meteo pe oră la York

    Astăzi, 21 Aprilie, Duminică

    Timp Temperatura Precipitaţii Vânt Presiune Umiditate
    00:00 +9°C° 0 mm 2 m/s 769 mmHg 83%
    01:00 +9°C° 0 mm 2 m/s 768 mmHg 83%
    02:00 +8°C° 0 mm 2 m/s 768 mmHg 83%
    03:00 +8°C° 0 mm 2 m/s 767 mmHg 83%
    04:00 +8°C° 0 mm 2 m/s 767 mmHg 83%
    05:00 +8°C° 0 mm 2 m/s 766 mmHg 82%
    06:00 +9°C° 0 mm 2 m/s 766 mmHg 82%
    07:00 +12°C° 0 mm 2 m/s 766 mmHg 76%
    08:00 +14°C° 0 mm 2 m/s 765 mmHg 70%
    09:00 +17°C° 0 mm 3 m/s 765 mmHg 64%
    10:00 +18°C° 0 mm 3 m/s 764 mmHg 59%
    11:00 +19°C° 0 mm 3 m/s 764 mmHg 54%
    12:00 +21°C° 0 mm 3 m/s 764 mmHg 49%
    13:00 +21°C° 0 mm 4 m/s 763 mmHg 49%
    14:00 +21°C° 0 mm 4 m/s 762 mmHg 49%
    15:00 +22°C° 0 mm 4 m/s 762 mmHg 49%
    16:00 +20°C° 0 mm 4 m/s 761 mmHg 54%
    17:00 +19°C° 0 mm 3 m/s 761 mmHg 60%
    18:00 +18°C° 0 mm 3 m/s 760 mmHg 66%
    19:00 +16°C° 0 mm 3 m/s 760 mmHg 67%
    20:00 +13°C° 0 mm 3 m/s 760 mmHg 69%
    21:00 +11°C° 0 mm 3 m/s 760 mmHg 71%
    22:00 +11°C° 0 mm 3 m/s 759 mmHg 74%
    23:00 +10°C° 0 mm 3 m/s 759 mmHg 78%

    Mâine, 22 Aprilie, Luni

    Timp Temperatura Precipitaţii Vânt Presiune Umiditate
    00:00 +10°C° 0 mm 3 m/s 759 mmHg 81%
    01:00 +9°C° 0 mm 3 m/s 758 mmHg 81%
    02:00 +9°C° 0 mm 3 m/s 758 mmHg 81%
    03:00 +9°C° 0 mm 2 m/s 757 mmHg 80%
    04:00 +8°C° 0 mm 2 m/s 757 mmHg 76%
    05:00 +8°C° 0 mm 2 m/s 756 mmHg 72%
    06:00 +8°C° 0 mm 2 m/s 756 mmHg 68%
    07:00 +10°C° 0 mm 2 m/s 756 mmHg 65%
    08:00 +12°C° 0 mm 3 m/s 755 mmHg 61%
    09:00 +14°C° 0 mm 3 m/s 755 mmHg 58%
    10:00 +17°C° 0 mm 4 m/s 755 mmHg 59%
    11:00 +18°C° 0 mm 4 m/s 754 mmHg 59%
    12:00 +20°C° 0 mm 5 m/s 754 mmHg 59%
    13:00 +20°C° 0 mm 5 m/s 753 mmHg 58%
    14:00 +20°C° 0 mm 6 m/s 753 mmHg 56%
    15:00 +20°C° 0 mm 7 m/s 752 mmHg 55%
    16:00 +19°C° 0 mm 6 m/s 752 mmHg 60%
    17:00 +16°C° 0 mm 6 m/s 752 mmHg 64%
    18:00 +15°C° 0 mm 5 m/s 751 mmHg 69%
    19:00 +13°C° 0 mm 5 m/s 751 mmHg 73%
    20:00 +12°C° 0 mm 4 m/s 751 mmHg 77%
    21:00 +11°C° 0 mm 4 m/s 751 mmHg 82%
    22:00 +11°C° 0 mm 4 m/s 751 mmHg 82%
    23:00 +11°C° 0 mm 3 m/s 751 mmHg 82%

    Poimâine, 23 Aprilie, Marţi

    Timp Temperatura Precipitaţii Vânt Presiune Umiditate
    00:00 +10°C° 0 mm 3 m/s 751 mmHg 83%
    01:00 +10°C° 0 mm 3 m/s 751 mmHg 85%
    02:00 +10°C° 0 mm 3 m/s 751 mmHg 86%
    03:00 +9°C° 0 mm 3 m/s 750 mmHg 88%
    04:00 +9°C° 0 mm 3 m/s 750 mmHg 87%
    05:00 +9°C° 0 mm 3 m/s 750 mmHg 87%
    06:00 +8°C° 0 mm 4 m/s 750 mmHg 86%
    07:00 +11°C° 0 mm 4 m/s 750 mmHg 81%
    08:00 +12°C° 0 mm 5 m/s 750 mmHg 76%
    09:00 +14°C° 0 mm 5 m/s 750 mmHg 72%
    10:00 +14°C° 0 mm 6 m/s 750 mmHg 69%
    11:00 +15°C° 0 mm 6 m/s 750 mmHg 66%
    12:00 +16°C° 0 mm 6 m/s 749 mmHg 64%
    13:00 +15°C° 0 mm 7 m/s 749 mmHg 64%
    14:00 +15°C° 0 mm 7 m/s 749 mmHg 65%
    15:00 +15°C° 0 mm 7 m/s 749 mmHg 65%
    16:00 +14°C° 0 mm 6 m/s 749 mmHg 69%
    17:00 +13°C° 0 mm 6 m/s 748 mmHg 73%
    18:00 +12°C° 0 mm 5 m/s 748 mmHg 77%
    19:00 +10°C° 0 mm 5 m/s 748 mmHg 83%
    20:00 +8°C° 0 mm 4 m/s 748 mmHg 88%
    21:00 +7°C° 0 mm 4 m/s 749 mmHg 94%
    22:00 +7°C° 0 mm 4 m/s 748 mmHg 93%
    23:00 +8°C° 0 mm 3 m/s 748 mmHg 93%

    24 Aprilie, Miercuri

    Timp Temperatura Precipitaţii Vânt Presiune Umiditate
    00:00 +9°C° 0 mm 3 m/s 747 mmHg 93%
    01:00 +8°C° 0 mm 4 m/s 747 mmHg 92%
    02:00 +8°C° 0 mm 4 m/s 747 mmHg 91%
    03:00 +10°C° 0 mm 4 m/s 746 mmHg 91%
    04:00 +9°C° 0 mm 5 m/s 746 mmHg 91%
    05:00 +9°C° 0 mm 5 m/s 745 mmHg 91%
    06:00 +9°C° 0 mm 5 m/s 745 mmHg 91%
    07:00 +9°C° 0.1 mm 5 m/s 745 mmHg 90%
    08:00 +10°C° 0.1 mm 6 m/s 745 mmHg 90%
    09:00 +10°C° 0.1 mm 6 m/s 745 mmHg 89%
    10:00 +10°C° 0.9 mm 5 m/s 745 mmHg 90%
    11:00 +11°C° 0.9 mm 4 m/s 745 mmHg 92%
    12:00 +11°C° 0.9 mm 4 m/s 745 mmHg 94%
    13:00 +12°C° 0.5 mm 4 m/s 745 mmHg 88%
    14:00 +14°C° 0.5 mm 4 m/s 745 mmHg 82%
    15:00 +15°C° 0.5 mm 4 m/s 745 mmHg 76%
    16:00 +14°C° 0.1 mm 3 m/s 745 mmHg 75%
    17:00 +14°C° 0.1 mm 3 m/s 745 mmHg 74%
    18:00 +13°C° 0.1 mm 3 m/s 745 mmHg 73%
    19:00 +12°C° 0 mm 3 m/s 746 mmHg 74%
    20:00 +11°C° 0 mm 4 m/s 746 mmHg 75%
    21:00 +10°C° 0 mm 4 m/s 746 mmHg 76%
    22:00 +10°C° 0 mm 4 m/s 746 mmHg 78%
    23:00 +8°C° 0 mm 4 m/s 746 mmHg 79%

    25 Aprilie, Joi

    Timp Temperatura Precipitaţii Vânt Presiune Umiditate
    00:00 +7°C° 0 mm 4 m/s 746 mmHg 81%
    01:00 +7°C° 0 mm 4 m/s 746 mmHg 83%
    02:00 +7°C° 0 mm 5 m/s 745 mmHg 85%
    03:00 +7°C° 0 mm 5 m/s 745 mmHg 87%
    04:00 +8°C° 0 mm 6 m/s 745 mmHg 86%
    05:00 +8°C° 0 mm 6 m/s 745 mmHg 85%
    06:00 +9°C° 0 mm 6 m/s 745 mmHg 85%
    07:00 +8°C° 1.9 mm 6 m/s 745 mmHg 87%
    08:00 +8°C° 1.9 mm 6 m/s 745 mmHg 90%
    09:00 +8°C° 1.9 mm 6 m/s 745 mmHg 93%
    10:00 +9°C° 0.3 mm 7 m/s 745 mmHg 85%
    11:00 +11°C° 0.3 mm 7 m/s 745 mmHg 77%
    12:00 +12°C° 0.3 mm 7 m/s 746 mmHg 69%
    13:00 +12°C° 0.3 mm 7 m/s 746 mmHg 67%
    14:00 +12°C° 0.3 mm 7 m/s 746 mmHg 64%
    15:00 +14°C° 0.3 mm 7 m/s 747 mmHg 62%
    16:00 +13°C° 0.2 mm 6 m/s 747 mmHg 66%
    17:00 +12°C° 0.2 mm 5 m/s 747 mmHg 70%
    18:00 +12°C° 0.2 mm 4 m/s 748 mmHg 74%
    19:00 +10°C° 0 mm 4 m/s 748 mmHg 77%
    20:00 +8°C° 0 mm 4 m/s 748 mmHg 80%
    21:00 +7°C° 0 mm 4 m/s 749 mmHg 83%
    22:00 +7°C° 0 mm 4 m/s 749 mmHg 85%
    23:00 +7°C° 0 mm 4 m/s 749 mmHg 86%

    26 Aprilie, Vineri

    Timp Temperatura Precipitaţii Vânt Presiune Umiditate
    00:00 +6°C° 0 mm 4 m/s 749 mmHg 88%
    01:00 +6°C° 0 mm 4 m/s 749 mmHg 90%
    02:00 +5°C° 0 mm 3 m/s 750 mmHg 92%
    03:00 +4°C° 0 mm 3 m/s 750 mmHg 94%
    04:00 +5°C° 0 mm 3 m/s 750 mmHg 93%
    05:00 +5°C° 0 mm 3 m/s 750 mmHg 92%
    06:00 +7°C° 0 mm 3 m/s 750 mmHg 91%
    07:00 +8°C° 0 mm 3 m/s 751 mmHg 88%
    08:00 +8°C° 0 mm 4 m/s 751 mmHg 84%
    09:00 +11°C° 0 mm 4 m/s 751 mmHg 80%
    10:00 +11°C° 0.1 mm 3 m/s 752 mmHg 77%
    11:00 +12°C° 0.1 mm 3 m/s 752 mmHg 73%
    12:00 +14°C° 0.1 mm 2 m/s 752 mmHg 70%
    13:00 +15°C° 0.4 mm 2 m/s 752 mmHg 68%
    14:00 +14°C° 0.4 mm 3 m/s 753 mmHg 66%
    15:00 +14°C° 0.4 mm 4 m/s 753 mmHg 65%
    16:00 +14°C° 0 mm 4 m/s 753 mmHg 67%
    17:00 +14°C° 0 mm 3 m/s 753 mmHg 69%
    18:00 +13°C° 0 mm 3 m/s 754 mmHg 71%
    19:00 +12°C° 0 mm 4 m/s 754 mmHg 71%
    20:00 +11°C° 0 mm 4 m/s 754 mmHg 72%
    21:00 +9°C° 0 mm 5 m/s 754 mmHg 73%
    22:00 +9°C° 0.3 mm 5 m/s 754 mmHg 77%
    23:00 +9°C° 0.3 mm 6 m/s 754 mmHg 81%
    Arată mai mult